Location: Betz
(49.1556°N, 2.9558°E)
Time: 23:43:45
(UTC+00:00)

Cosmos 1934 Rocket - Pass Details

Date: 18 September 2019
Orbit: 938 x 999 km, 83.0° (Epoch: 21 October)

Event Time Altitude Azimuth Distance (km) Brightness Sun altitude
Rises 21:45:09 0° 348° (NNW) 3,623 7.9 -33.2°
Reaches altitude 10° 21:47:39 10° 345° (NNW) 2,680 7.0 -33.4°
Enters shadow 21:52:49 56° 303° (WNW) 1,130 4.4 -33.9°
